Agate Beach, OR

8:06 AM PDT on August 29, 2014 (GMT -0700)
Beverly Beach, Newport, Oregon | Change Station
CLOSE
Current Station
Personal Weather Station
Location: Newport, OR
Elevation: 108 ft
Nearby Weather Stations

Elev 108 ft 44.72 °N, 124.06 °W | Updated 1 minute ago

Overcast
Overcast
59.7 °F
Feels Like 59.7 °F
N
1.0
Wind Variable Wind from ENE
Gusts 2.0 mph

Today
High -- | Low -- °F
--% Chance of Precip.
Yesterday
High -- | Low -- °F
Precip. -- in
6:35 AM 7:57 PM
Waxing Crescent, 14% visible
Pressure 30.06 in
Visibility 10.0 miles
Clouds Overcast 700 ft
Dew Point 59 °F
Humidity 98%
Rainfall 0.00 in
Snow Depth Not available.
UV 0 out of 12
Pollen 3.30 out of 12
Air Quality Not available.
Flu Activity Not available.
METAR KONP 291455Z AUTO 00000KT 10SM OVC007 15/15 A3006 RMK AO2

More Conditions Fewer Conditions

Pressure 30.06 in
Visibility 10.0 miles
Clouds Overcast 700 ft
Dew Point 59 °F
Humidity 98%
Rainfall 0.00 in
Snow Depth Not available.
UV 0 out of 12
Pollen 3.30 out of 12
Air Quality Not available.
Flu Activity Not available.
METAR KONP 291455Z AUTO 00000KT 10SM OVC007 15/15 A3006 RMK AO2

More Conditions Fewer Conditions

10-Day Weather Forecast

Almanac

Astronomy

Aug. 29, 2014 Rise Set
Actual Time 6:35 AM PDT 7:57 PM PDT
Civil Twilight 6:04 AM PDT 8:28 PM PDT
Nautical Twilight 5:27 AM PDT 9:04 PM PDT
Astronomical Twilight 4:48 AM PDT 9:43 PM PDT
Moon 10:41 AM PDT 9:46 PM PDT
Length of Visible Light 14h 23m
Length of Day
13h 22m
Tomorrow will be 2m 57s shorter.
Waxing Crescent, 14% of the Moon is Illuminated
Today
Waxing Crescent
Sep 2
First Quarter
Sep 8
Full
Sep 15
Last Quarter
Sep 24
New

Today's Extremes

State Highs State Lows

Community

WunderPhotos

Upload Photos

1,748,263 photos uploaded!

Nearby

Snow Depth

Station Depth Elevation
Seine Creek 0 in 2000 ft
Daly Lake 0 in 3600 ft
Marion Forks 3 in 2600 ft
Santiam Junction 0 in 3750 ft
Peavine Ridge 3 in 3500 ft

Earthquake Activity

City Distance Mag. Time & Date
No recent earthquake activity has been reported nearby.
Minimum magnitude displayed is 2.5.

Coastal Water Temperatures

Place Temperature
South Beach, OR 53.1 °F
Charleston, OR 53.1 °F

Nearby Weather Stations